GLOBALSTAR M037 [+]

Last updated on Fri Dec 29 2023 00:02:56 GMT+0000 (Coordinated Universal Time)

1 25652U 99012D 23362.14706381 -.00000050 00000+0 29830-3 0 9997 2 25652 52.0025 19.4815 0002072 81.4720 27.5548 12.62392382143497

Satellite not in orbit

GLOBALSTAR M037 [+]